Regional Weather Roundup
Issued by NWS

Home | Current Version | Previous Version | Text Only | Print | Product List | Glossary Off
Versions: 1 2 3 4 5 6 7 8 9 10 11 12 13 14 15 16 17 18 19 20 21 22 23 24 25 26 27 28 29 30 31 32 33 34 35 36 37 38 39 40 41 42 43 44 45 46 47 48 49 50

000
ASUS43 KLSX 010259
RWRMO

WEATHER SUMMARY FOR MISSOURI
NATIONAL WEATHER SERVICE SPRINGFIELD MO
1000 PM CDT TUE SEP 30 2014

NOTE: "FAIR" INDICATES FEW OR NO CLOUDS BELOW 12,000 FEET WITH NO
       SIGNIFICANT WEATHER AND/OR OBSTRUCTIONS TO VISIBILITY.
       CURRENT SKY AND/OR WEATHER CONDITIONS ARE NOT AVAILABLE FOR
       CHILLICOTHE AND FARMINGTON.

MOZ001>031-035>038-043-044-053-054-010400-
...NORTHERN AND WESTERN MISSOURI...

CITY           SKY/WX    TMP DP  RH WIND       PRES   REMARKS
KANSAS CTY INT CLOUDY    72  60  66 SE10      29.78F
KANSAS C DTWN  MOCLDY    77  58  51 SE13      29.78F
LEE`S SUMMIT   PTCLDY    73  59  61 S6        29.82S
ST JOSEPH      CLOUDY    73  59  61 SE9       29.78S
CHILLICOTHE      N/A     72  62  71 SE7       29.84S
KIRKSVILLE     CLEAR     66  32  28 E9        29.88S

$$
MOZ066>068-077>081-088>096-101>105-010400-
...SOUTHWEST MISSOURI...

CITY           SKY/WX    TMP DP  RH WIND       PRES   REMARKS
SPRINGFIELD    CLEAR     67  55  65 SE7       29.87S
JOPLIN         CLEAR     72  60  66 SE10      29.83S

$$
MOZ032>034-039>042-045>050-055>058-069>072-010400-
...CENTRAL MISSOURI...

CITY           SKY/WX    TMP DP  RH WIND       PRES   REMARKS
COLUMBIA       CLEAR     69  58  67 E6        29.87S
JEFFERSON CITY PTCLDY    67  60  78 SE3       29.86R
ROLLA          CLEAR     68  53  58 S6        29.89R
SEDALIA        CLEAR     67  59  75 SE5       29.85S
OSAGE BEACH    CLEAR     68  57  68 SE3       29.88R

$$
MOZ051-052-059>065-010400-
...EAST CENTRAL MISSOURI...

CITY           SKY/WX    TMP DP  RH WIND       PRES   REMARKS
ST LOUIS INTL  CLEAR     72  59  63 E8        29.90R
SPIRIT OF STL  CLEAR    N/A N/A N/A CALM      29.88R
ST CHARLES     CLEAR     67  59  75 MISG      29.89R

$$
MOZ072>076-082>087-097>100-106>115-010400-
...SOUTH CENTRAL AND SOUTHEAST MISSOURI...

CITY           SKY/WX    TMP DP  RH WIND       PRES   REMARKS
CAPE GIRARDEAU CLEAR     60  57  89 CALM      29.90R
FARMINGTON     CLEAR     63  55  77 CALM      29.93S
POPLAR BLUFF   CLEAR     62  57  83 CALM      29.88R
WEST PLAINS    CLEAR     61  54  77 CALM      29.92R

$$


USA.gov is the U.S. government's official web portal to all federal, state and local government web resources and services.